contact:dominique.lefevre@mio.osupytheas.fr, maurice.libes@osupytheas.fr
Project:EMSO Ligure-ouest http://www.emso-fr.org/EMSO-France
Sensor Aquadopp, line 13 Serial AQD14315 
DOI : "https://doi.org/10.17882/74513; https://doi.org/10.17882/83244" 
Title:EMSO Ligure Ouest : Data ligne ALBATROSS capteur AQUADOPP - deploiement 2021
Id,Date,Profondeur,Latitude,Longitude,X_East,Y_North,Z_Up,Amplitude_X,Amplitude_Y,Amplitude_Z,Batterie,SoundSpeed,Heading,Pitch,Roll,Pressure,Temperature,Speed,Direction
, , m, degrees North, degrees East, m.s-1, m.s-1,m.s-1, 1, 1, 1, Volt, m.s-1, degree, degree, degree, dbar, degree_C, m.s-1, degree
13,2023-03-27T23:30:00,2400.0,42.79,6.0312,0.087,0.005,-0.025,70.0,61.0,61.0,12.2,1504.9,101.5,-2.5,-0.2,2393.19,13.34,0.087,86.7
13,2023-03-28T00:00:00,2400.0,42.79,6.0312,0.1,0.007,0.002,68.0,60.0,65.0,12.2,1504.9,103.8,-2.5,-1.2,2393.132,13.34,0.1,86.0
13,2023-03-28T00:30:00,2400.0,42.79,6.0312,0.109,0.008,0.011,69.0,61.0,65.0,12.2,1504.9,98.8,-2.4,-0.5,2393.19,13.34,0.109,85.8
13,2023-03-28T01:00:00,2400.0,42.79,6.0312,0.099,0.006,-0.02,72.0,61.0,63.0,12.2,1504.9,99.1,-3.1,-1.3,2393.159,13.34,0.099,86.5
13,2023-03-28T01:30:00,2400.0,42.79,6.0312,0.117,0.012,0.008,72.0,67.0,67.0,12.2,1504.9,101.6,-2.7,-0.8,2393.172,13.34,0.117,84.1
13,2023-03-28T02:00:00,2400.0,42.79,6.0312,0.112,-0.004,0.005,73.0,64.0,71.0,12.2,1504.9,103.8,-2.8,-0.9,2393.09,13.34,0.112,92.0
13,2023-03-28T02:30:00,2400.0,42.79,6.0312,0.119,0.001,-0.001,73.0,66.0,68.0,12.2,1504.9,94.3,-2.2,-0.7,2393.108,13.34,0.119,89.5
13,2023-03-28T03:00:00,2400.0,42.79,6.0312,0.127,-0.038,-0.003,74.0,65.0,66.0,12.2,1504.9,108.9,-2.3,-0.9,2393.11,13.34,0.132,106.7
13,2023-03-28T03:30:00,2400.0,42.79,6.0312,0.131,0.011,-0.006,71.0,64.0,66.0,12.2,1504.9,98.8,-2.7,-0.9,2393.088,13.34,0.131,85.2
13,2023-03-28T04:00:00,2400.0,42.79,6.0312,0.103,-0.027,-0.003,72.0,65.0,68.0,12.2,1504.9,109.7,-2.1,-0.7,2393.085,13.34,0.106,104.7
13,2023-03-28T04:30:00,2400.0,42.79,6.0312,0.121,0.0,0.015,70.0,66.0,66.0,12.2,1504.9,95.8,-1.8,-0.1,2393.052,13.34,0.12,90.0
13,2023-03-28T05:00:00,2400.0,42.79,6.0312,0.098,0.003,0.01,72.0,64.0,67.0,12.2,1504.9,95.1,-2.3,-0.4,2393.104,13.34,0.098,88.2
13,2023-03-28T05:30:00,2400.0,42.79,6.0312,0.103,-0.006,0.003,73.0,65.0,69.0,12.2,1504.9,104.1,-2.7,-0.7,2393.112,13.34,0.103,93.3
13,2023-03-28T06:00:00,2400.0,42.79,6.0312,0.101,0.007,-0.008,73.0,64.0,64.0,12.2,1504.9,100.8,-2.6,-0.8,2393.094,13.34,0.101,86.0
13,2023-03-28T06:30:00,2400.0,42.79,6.0312,0.094,0.013,0.003,74.0,64.0,68.0,12.2,1504.9,98.6,-2.5,-0.5,2393.044,13.34,0.094,82.1
13,2023-03-28T07:00:00,2400.0,42.79,6.0312,0.112,-0.024,0.009,69.0,62.0,68.0,12.2,1504.9,107.1,-2.9,-1.0,2393.047,13.34,0.114,102.1
13,2023-03-28T07:30:00,2400.0,42.79,6.0312,0.104,-0.015,0.001,72.0,63.0,67.0,12.2,1504.9,104.8,-2.3,-0.5,2393.044,13.34,0.105,98.2
13,2023-03-28T08:00:00,2400.0,42.79,6.0312,0.12,0.023,-0.033,70.0,63.0,65.0,12.2,1504.9,94.9,-2.8,-0.4,2393.068,13.34,0.122,79.2
13,2023-03-28T08:30:00,2400.0,42.79,6.0312,0.111,0.009,-0.005,73.0,63.0,68.0,12.2,1504.9,101.6,-2.1,-0.9,2393.082,13.34,0.111,85.4
13,2023-03-28T09:00:00,2400.0,42.79,6.0312,0.107,0.029,0.004,72.0,65.0,65.0,12.2,1504.9,94.7,-2.4,-0.6,2393.089,13.34,0.11,74.8
13,2023-03-28T09:30:00,2400.0,42.79,6.0312,0.089,-0.033,-0.011,74.0,64.0,67.0,12.2,1504.9,108.1,-2.7,-0.5,2393.137,13.34,0.094,110.3
13,2023-03-28T10:00:00,2400.0,42.79,6.0312,0.125,-0.036,0.021,73.0,65.0,66.0,12.2,1504.9,99.4,-2.1,-0.4,2393.153,13.34,0.13,106.1
13,2023-03-28T10:30:00,2400.0,42.79,6.0312,0.101,-0.023,-0.014,72.0,64.0,66.0,12.2,1504.9,107.2,-2.8,-1.3,2393.121,13.34,0.103,102.8
13,2023-03-28T11:00:00,2400.0,42.79,6.0312,0.113,0.001,-0.041,74.0,65.0,67.0,12.2,1504.9,101.7,-2.7,-1.4,2393.108,13.34,0.113,89.5
13,2023-03-28T11:30:00,2400.0,42.79,6.0312,0.09,-0.024,-0.005,75.0,66.0,67.0,12.2,1504.9,102.7,-2.3,-1.8,2393.133,13.34,0.093,104.9
13,2023-03-28T12:30:00,2400.0,42.79,6.0312,0.127,0.014,-0.037,73.0,64.0,67.0,12.2,1504.9,96.6,-2.2,-1.1,2393.1,13.34,0.127,83.7
13,2023-03-28T13:00:00,2400.0,42.79,6.0312,0.118,0.01,-0.032,72.0,65.0,67.0,12.2,1504.9,89.3,-2.9,-0.5,2393.134,13.34,0.118,85.2
13,2023-03-28T13:30:00,2400.0,42.79,6.0312,0.114,-0.001,-0.038,75.0,64.0,67.0,12.2,1504.9,102.7,-2.8,-0.6,2393.118,13.34,0.114,90.5
13,2023-03-28T14:00:00,2400.0,42.79,6.0312,0.109,0.0,0.007,71.0,66.0,67.0,12.2,1504.9,96.2,-3.4,-0.8,2393.098,13.34,0.109,90.0
13,2023-03-28T14:30:00,2400.0,42.79,6.0312,0.117,-0.005,-0.01,72.0,65.0,66.0,12.2,1504.9,100.4,-2.9,-1.1,2393.096,13.34,0.117,92.4
13,2023-03-28T15:00:00,2400.0,42.79,6.0312,0.13,0.013,0.034,71.0,65.0,69.0,12.2,1504.9,98.6,-2.6,-1.2,2393.137,13.34,0.13,84.3
13,2023-03-28T15:30:00,2400.0,42.79,6.0312,0.137,0.008,-0.005,72.0,65.0,68.0,12.2,1504.9,93.5,-2.3,-0.1,2393.111,13.34,0.137,86.7
13,2023-03-28T16:00:00,2400.0,42.79,6.0312,0.133,0.022,-0.001,75.0,67.0,68.0,12.2,1504.9,90.7,-3.2,-0.4,2393.145,13.34,0.134,80.6
13,2023-03-28T16:30:00,2400.0,42.79,6.0312,0.143,-0.002,-0.01,73.0,65.0,68.0,12.2,1504.9,94.7,-3.4,-0.9,2393.133,13.34,0.143,90.8
13,2023-03-28T17:00:00,2400.0,42.79,6.0312,0.143,-0.015,-0.018,76.0,67.0,68.0,12.2,1504.9,100.6,-3.5,-1.2,2393.117,13.34,0.143,96.0
13,2023-03-28T17:30:00,2400.0,42.79,6.0312,0.13,-0.006,-0.002,77.0,69.0,73.0,12.2,1504.9,99.0,-3.5,-1.4,2393.161,13.34,0.13,92.6
13,2023-03-28T18:00:00,2400.0,42.79,6.0312,0.124,-0.044,0.004,78.0,65.0,72.0,12.2,1504.9,102.5,-4.0,-1.0,2393.144,13.34,0.131,109.5
13,2023-03-28T18:30:00,2400.0,42.79,6.0312,0.112,-0.048,-0.03,74.0,67.0,69.0,12.2,1504.9,111.1,-3.5,-1.1,2393.148,13.34,0.121,113.2
13,2023-03-28T19:00:00,2400.0,42.79,6.0312,0.098,-0.066,-0.005,75.0,67.0,69.0,12.2,1504.9,114.1,-3.4,-1.1,2393.162,13.34,0.118,124.0
13,2023-03-28T19:30:00,2400.0,42.79,6.0312,0.105,-0.019,-0.005,74.0,67.0,70.0,12.2,1504.9,104.5,-3.5,-1.1,2393.125,13.34,0.106,100.3
13,2023-03-28T20:00:00,2400.0,42.79,6.0312,0.099,-0.076,0.007,73.0,66.0,67.0,12.2,1504.9,109.7,-2.8,-0.2,2393.122,13.34,0.124,127.5
13,2023-03-28T20:30:00,2400.0,42.79,6.0312,0.073,-0.071,-0.006,72.0,64.0,67.0,12.2,1504.9,120.0,-3.6,-1.6,2393.146,13.34,0.101,134.2
13,2023-03-28T21:00:00,2400.0,42.79,6.0312,0.073,-0.046,0.009,74.0,62.0,66.0,12.2,1504.9,111.1,-2.7,-0.8,2393.169,13.34,0.086,122.2
13,2023-03-28T21:30:00,2400.0,42.79,6.0312,0.089,-0.044,-0.017,70.0,66.0,64.0,12.2,1504.9,119.5,-3.2,-1.6,2393.071,13.34,0.099,116.3
13,2023-03-28T22:00:00,2400.0,42.79,6.0312,0.089,-0.047,-0.015,70.0,64.0,66.0,12.2,1504.9,115.8,-2.9,-1.0,2393.15,13.34,0.1,117.8
13,2023-03-28T22:30:00,2400.0,42.79,6.0312,0.084,-0.044,-0.026,72.0,64.0,66.0,12.2,1504.9,124.3,-2.7,-1.4,2393.206,13.34,0.094,117.6
13,2023-03-28T23:00:00,2400.0,42.79,6.0312,0.096,-0.03,-0.022,71.0,65.0,69.0,12.2,1504.9,120.0,-3.0,-0.8,2393.188,13.34,0.1,107.4
